| time (UTC) | temp F | wind direction | speed MPH | gust MPH | rain 1hr in | rain 24hr in | rain mn in | humidity % | barometer mb |
| 20260906005311 | 92 | 111 | 8.0 | 14.0 | 0.00 | 0.00 | 0.00 | 57 | 1013.0 |
| 20260906004811 | 93 | 95 | 8.0 | 15.0 | 0.00 | 0.00 | 0.00 | 56 | 1012.9 |
| 20260906004311 | 93 | 118 | 6.0 | 15.0 | 0.00 | 0.00 | 0.00 | 54 | 1013.0 |
| 20260906003809 | 93 | 97 | 4.0 | 9.0 | 0.00 | 0.00 | 0.00 | 51 | 1012.9 |
| 20260906003309 | 94 | 90 | 3.0 | 8.0 | 0.00 | 0.00 | 0.00 | 51 | 1012.9 |
| 20260906002809 | 94 | 92 | 4.0 | 9.0 | 0.00 | 0.00 | 0.00 | 51 | 1012.9 |
| 20260906002531 | 94 | 103 | 4.0 | 9.0 | 0.00 | 0.00 | 0.00 | 51 | 1012.8 |
| 20260906001809 | 94 | 86 | 4.0 | 8.0 | 0.00 | 0.00 | 0.00 | 50 | 1012.8 |
| 20260906001531 | 95 | 130 | 4.0 | 8.0 | 0.00 | 0.00 | 0.00 | 50 | 1012.7 |
| 20260906000809 | 95 | 111 | 3.0 | 7.0 | 0.00 | 0.00 | 0.00 | 50 | 1012.7 |
| 20260906000311 | 95 | 102 | 3.0 | 7.0 | 0.00 | 0.00 | 0.00 | 49 | 1012.7 |
| 20260905235809 | 95 | 125 | 3.0 | 7.0 | 0.00 | 0.00 | 0.00 | 48 | 1012.7 |
| 20260905235306 | 95 | 149 | 3.0 | 8.0 | 0.00 | 0.00 | 0.00 | 49 | 1012.6 |
| 20260905234805 | 96 | 84 | 3.0 | 12.0 | 0.00 | 0.00 | 0.00 | 48 | 1012.5 |
| 20260905234305 | 96 | 98 | 3.0 | 12.0 | 0.00 | 0.00 | 0.00 | 47 | 1012.5 |
| 20260905233805 | 96 | 142 | 3.0 | 8.0 | 0.00 | 0.00 | 0.00 | 48 | 1012.5 |
| 20260905233304 | 96 | 124 | 4.0 | 8.0 | 0.00 | 0.00 | 0.00 | 47 | 1012.5 |
| 20260905232805 | 96 | 127 | 3.0 | 10.0 | 0.00 | 0.00 | 0.00 | 47 | 1012.5 |
| 20260905232306 | 96 | 116 | 4.0 | 10.0 | 0.00 | 0.00 | 0.00 | 46 | 1012.5 |
| 20260905231804 | 97 | 109 | 5.0 | 10.0 | 0.00 | 0.00 | 0.00 | 46 | 1012.5 |
| 20260905231305 | 97 | 159 | 4.0 | 10.0 | 0.00 | 0.00 | 0.00 | 46 | 1012.5 |
| 20260905231026 | 97 | 128 | 3.0 | 8.0 | 0.00 | 0.00 | 0.00 | 47 | 1012.5 |
| 20260905230754 | 97 | 140 | 4.0 | 8.0 | 0.00 | 0.00 | 0.00 | 47 | 1012.5 |
| 20260905225805 | 97 | 130 | 4.0 | 8.0 | 0.00 | 0.00 | 0.00 | 46 | 1012.4 |
| 20260905225306 | 97 | 94 | 3.0 | 9.0 | 0.00 | 0.00 | 0.00 | 46 | 1012.6 |
| 20260905224804 | 97 | 0 | 3.0 | 9.0 | 0.00 | 0.00 | 0.00 | 46 | 1012.6 |
| 20260905224534 | 97 | 155 | 4.0 | 11.0 | 0.00 | 0.00 | 0.00 | 45 | 1012.7 |
| 20260905223804 | 97 | 144 | 4.0 | 11.0 | 0.00 | 0.00 | 0.00 | 47 | 1012.8 |
| 20260905223303 | 96 | 137 | 5.0 | 11.0 | 0.00 | 0.00 | 0.00 | 48 | 1012.7 |
| 20260905223030 | 96 | 142 | 5.0 | 11.0 | 0.00 | 0.00 | 0.00 | 46 | 1012.7 |
| 20260905222305 | 96 | 150 | 4.0 | 11.0 | 0.00 | 0.00 | 0.00 | 47 | 1012.7 |
| 20260905221803 | 96 | 110 | 4.0 | 7.0 | 0.00 | 0.00 | 0.00 | 47 | 1012.6 |
| 20260905221526 | 96 | 113 | 3.0 | 7.0 | 0.00 | 0.00 | 0.00 | 47 | 1012.7 |
| 20260905220801 | 95 | 14 | 3.0 | 6.0 | 0.00 | 0.00 | 0.00 | 48 | 1012.7 |
| 20260905220255 | 95 | 19 | 3.0 | 7.0 | 0.00 | 0.00 | 0.00 | 48 | 1013.0 |
| 20260905215749 | 96 | 161 | 5.0 | 11.0 | 0.00 | 0.00 | 0.00 | 47 | 1012.9 |
| 20260905215244 | 97 | 113 | 6.0 | 12.0 | 0.00 | 0.00 | 0.00 | 46 | 1012.9 |
| 20260905214738 | 98 | 97 | 3.0 | 12.0 | 0.00 | 0.00 | 0.00 | 45 | 1012.8 |
| 20260905214236 | 98 | 141 | 2.0 | 8.0 | 0.00 | 0.00 | 0.00 | 44 | 1012.8 |
| 20260905213736 | 98 | 0 | 3.0 | 8.0 | 0.00 | 0.00 | 0.00 | 44 | 1012.8 |
| 20260905213715 | 98 | 171 | 3.0 | 7.0 | 0.00 | 0.00 | 0.00 | 46 | 1012.8 |
| 20260905212736 | 98 | 95 | 2.0 | 7.0 | 0.00 | 0.00 | 0.00 | 47 | 1012.9 |
| 20260905212235 | 97 | 115 | 2.0 | 4.0 | 0.00 | 0.00 | 0.00 | 47 | 1013.0 |
| 20260905211735 | 97 | 96 | 2.0 | 10.0 | 0.00 | 0.00 | 0.00 | 45 | 1013.2 |
| 20260905211233 | 97 | 38 | 4.0 | 10.0 | 0.00 | 0.00 | 0.00 | 47 | 1013.3 |
| 20260905210733 | 96 | 103 | 5.0 | 10.0 | 0.00 | 0.00 | 0.00 | 47 | 1013.4 |
| 20260905210459 | 97 | 173 | 4.0 | 10.0 | 0.00 | 0.00 | 0.00 | 47 | 1013.4 |
| 20260905205732 | 97 | 116 | 2.0 | 7.0 | 0.00 | 0.00 | 0.00 | 48 | 1013.5 |
| 20260905205451 | 96 | 350 | 2.0 | 8.0 | 0.00 | 0.00 | 0.00 | 46 | 1013.6 |
| 20260905204731 | 97 | 87 | 3.0 | 8.0 | 0.00 | 0.00 | 0.00 | 46 | 1013.7 |
| 20260905204232 | 96 | 51 | 4.0 | 10.0 | 0.00 | 0.00 | 0.00 | 49 | 1013.8 |
| 20260905203957 | 96 | 98 | 5.0 | 11.0 | 0.00 | 0.00 | 0.00 | 47 | 1013.9 |
| 20260905203232 | 96 | 87 | 5.0 | 11.0 | 0.00 | 0.00 | 0.00 | 47 | 1013.9 |
| 20260905203000 | 97 | 115 | 3.0 | 10.0 | 0.00 | 0.00 | 0.00 | 48 | 1014.0 |
| 20260905202232 | 97 | 185 | 2.0 | 9.0 | 0.00 | 0.00 | 0.00 | 49 | 1014.0 |
| 20260905201727 | 96 | 309 | 2.0 | 9.0 | 0.00 | 0.00 | 0.00 | 48 | 1014.1 |
| 20260905201447 | 96 | 130 | 3.0 | 11.0 | 0.00 | 0.00 | 0.00 | 47 | 1014.1 |
| 20260905200715 | 95 | 82 | 5.0 | 11.0 | 0.00 | 0.00 | 0.00 | 47 | 1014.3 |
| 20260905200209 | 95 | 142 | 5.0 | 10.0 | 0.00 | 0.00 | 0.00 | 49 | 1014.4 |
| 20260905195706 | 95 | 65 | 5.0 | 10.0 | 0.00 | 0.00 | 0.00 | 49 | 1014.5 |
| 20260905195205 | 95 | 119 | 3.0 | 10.0 | 0.00 | 0.00 | 0.00 | 51 | 1014.4 |
| 20260905194705 | 94 | 80 | 3.0 | 9.0 | 0.00 | 0.00 | 0.00 | 52 | 1014.5 |
| 20260905194203 | 94 | 113 | 4.0 | 9.0 | 0.00 | 0.00 | 0.00 | 52 | 1014.6 |
| 20260905193703 | 94 | 114 | 4.0 | 12.0 | 0.00 | 0.00 | 0.00 | 52 | 1014.6 |
| 20260905193203 | 94 | 88 | 4.0 | 12.0 | 0.00 | 0.00 | 0.00 | 52 | 1014.6 |
| 20260905192702 | 94 | 100 | 5.0 | 12.0 | 0.00 | 0.00 | 0.00 | 52 | 1014.9 |
| 20260905192203 | 94 | 121 | 5.0 | 12.0 | 0.00 | 0.00 | 0.00 | 53 | 1015.0 |
| 20260905191703 | 95 | 77 | 5.0 | 11.0 | 0.00 | 0.00 | 0.00 | 51 | 1015.0 |
| 20260905191203 | 95 | 100 | 5.0 | 11.0 | 0.00 | 0.00 | 0.00 | 53 | 1015.1 |
| 20260905190702 | 95 | 117 | 4.0 | 10.0 | 0.00 | 0.00 | 0.00 | 51 | 1015.2 |
| 20260905190203 | 95 | 115 | 3.0 | 10.0 | 0.00 | 0.00 | 0.00 | 54 | 1015.3 |
| 20260905185702 | 94 | 350 | 4.0 | 10.0 | 0.00 | 0.00 | 0.00 | 52 | 1015.3 |
| 20260905185429 | 94 | 90 | 3.0 | 10.0 | 0.00 | 0.00 | 0.00 | 55 | 1015.4 |
| 20260905184702 | 94 | 138 | 2.0 | 10.0 | 0.00 | 0.00 | 0.00 | 55 | 1015.7 |
| 20260905184203 | 94 | 203 | 3.0 | 7.0 | 0.00 | 0.00 | 0.00 | 55 | 1015.6 |
| 20260905183929 | 94 | 192 | 3.0 | 9.0 | 0.00 | 0.00 | 0.00 | 53 | 1015.7 |
| 20260905183203 | 94 | 117 | 4.0 | 10.0 | 0.00 | 0.00 | 0.00 | 54 | 1015.7 |
| 20260905182702 | 94 | 190 | 4.0 | 11.0 | 0.00 | 0.00 | 0.00 | 55 | 1015.9 |
| 20260905182427 | 94 | 144 | 3.0 | 11.0 | 0.00 | 0.00 | 0.00 | 56 | 1015.9 |
| 20260905181702 | 94 | 142 | 3.0 | 11.0 | 0.00 | 0.00 | 0.00 | 56 | 1016.0 |
| 20260905181203 | 93 | 115 | 4.0 | 11.0 | 0.00 | 0.00 | 0.00 | 57 | 1016.0 |
| 20260905180703 | 93 | 119 | 5.0 | 11.0 | 0.00 | 0.00 | 0.00 | 57 | 1016.1 |
| 20260905180202 | 93 | 163 | 3.0 | 9.0 | 0.00 | 0.00 | 0.00 | 57 | 1016.2 |
| 20260905175659 | 92 | 129 | 4.0 | 12.0 | 0.00 | 0.00 | 0.00 | 58 | 1016.3 |
| 20260905175158 | 92 | 214 | 5.0 | 12.0 | 0.00 | 0.00 | 0.00 | 56 | 1016.6 |
| 20260905174657 | 92 | 120 | 6.0 | 12.0 | 0.00 | 0.00 | 0.00 | 56 | 1016.5 |
| 20260905174426 | 92 | 39 | 7.0 | 12.0 | 0.00 | 0.00 | 0.00 | 58 | 1016.6 |
| 20260905173655 | 92 | 90 | 5.0 | 12.0 | 0.00 | 0.00 | 0.00 | 57 | 1016.8 |
| 20260905173155 | 92 | 162 | 6.0 | 12.0 | 0.00 | 0.00 | 0.00 | 56 | 1016.9 |
| 20260905172656 | 91 | 126 | 7.0 | 12.0 | 0.00 | 0.00 | 0.00 | 59 | 1016.8 |
| 20260905172421 | 91 | 130 | 6.0 | 12.0 | 0.00 | 0.00 | 0.00 | 59 | 1016.9 |
| 20260905171655 | 92 | 94 | 5.0 | 11.0 | 0.00 | 0.00 | 0.00 | 59 | 1016.9 |
| 20260905171154 | 91 | 128 | 4.0 | 11.0 | 0.00 | 0.00 | 0.00 | 61 | 1017.0 |
| 20260905170653 | 91 | 131 | 5.0 | 10.0 | 0.00 | 0.00 | 0.00 | 62 | 1017.1 |
| 20260905170152 | 91 | 138 | 4.0 | 10.0 | 0.00 | 0.00 | 0.00 | 66 | 1017.1 |
| 20260905165647 | 91 | 97 | 4.0 | 9.0 | 0.00 | 0.00 | 0.00 | 65 | 1017.1 |
| 20260905165142 | 90 | 192 | 4.0 | 11.0 | 0.00 | 0.00 | 0.00 | 65 | 1017.2 |
| 20260905164643 | 90 | 199 | 5.0 | 11.0 | 0.00 | 0.00 | 0.00 | 65 | 1017.1 |
| 20260905164143 | 90 | 128 | 4.0 | 11.0 | 0.00 | 0.00 | 0.00 | 66 | 1017.2 |
| 20260905163909 | 90 | 190 | 4.0 | 13.0 | 0.00 | 0.00 | 0.00 | 67 | 1017.2 |
| 20260905163143 | 90 | 155 | 4.0 | 13.0 | 0.00 | 0.00 | 0.00 | 67 | 1017.3 |
| 20260905162643 | 89 | 190 | 3.0 | 10.0 | 0.00 | 0.00 | 0.00 | 67 | 1017.1 |
| 20260905162142 | 89 | 141 | 3.0 | 12.0 | 0.00 | 0.00 | 0.00 | 69 | 1017.1 |
| 20260905161643 | 89 | 188 | 4.0 | 12.0 | 0.00 | 0.00 | 0.00 | 69 | 1017.1 |
| 20260905161143 | 88 | 215 | 4.0 | 12.0 | 0.00 | 0.00 | 0.00 | 70 | 1017.1 |
| 20260905160910 | 88 | 210 | 4.0 | 12.0 | 0.00 | 0.00 | 0.00 | 70 | 1017.2 |
| 20260905160141 | 87 | 0 | 4.0 | 8.0 | 0.00 | 0.00 | 0.00 | 74 | 1017.1 |
| 20260905155641 | 87 | 165 | 4.0 | 9.0 | 0.00 | 0.00 | 0.00 | 72 | 1017.0 |
| 20260905155141 | 87 | 189 | 4.0 | 9.0 | 0.00 | 0.00 | 0.00 | 73 | 1017.1 |
| 20260905154637 | 87 | 176 | 5.0 | 10.0 | 0.00 | 0.00 | 0.00 | 73 | 1017.1 |
| 20260905154137 | 87 | 189 | 5.0 | 10.0 | 0.00 | 0.00 | 0.00 | 72 | 1017.0 |
| 20260905153637 | 87 | 125 | 5.0 | 9.0 | 0.00 | 0.00 | 0.00 | 74 | 1017.1 |
| 20260905153138 | 87 | 206 | 4.0 | 8.0 | 0.00 | 0.00 | 0.00 | 74 | 1017.0 |
| 20260905152637 | 87 | 165 | 3.0 | 6.0 | 0.00 | 0.00 | 0.00 | 77 | 1017.1 |
| 20260905152137 | 86 | 179 | 3.0 | 5.0 | 0.00 | 0.00 | 0.00 | 78 | 1017.1 |
| 20260905151637 | 85 | 233 | 4.0 | 9.0 | 0.00 | 0.00 | 0.00 | 78 | 1017.1 |
| 20260905151137 | 85 | 163 | 4.0 | 9.0 | 0.00 | 0.00 | 0.00 | 80 | 1017.1 |
| 20260905150902 | 85 | 198 | 3.0 | 8.0 | 0.00 | 0.00 | 0.00 | 80 | 1017.1 |
| 20260905150133 | 84 | 220 | 3.0 | 8.0 | 0.00 | 0.00 | 0.00 | 80 | 1017.1 |
| 20260905145633 | 85 | 209 | 3.0 | 8.0 | 0.00 | 0.00 | 0.00 | 81 | 1017.1 |
| 20260905145133 | 85 | 173 | 4.0 | 8.0 | 0.00 | 0.00 | 0.00 | 82 | 1017.1 |
| 20260905144633 | 84 | 159 | 3.0 | 8.0 | 0.00 | 0.00 | 0.00 | 84 | 1017.1 |
| 20260905144133 | 83 | 183 | 3.0 | 7.0 | 0.00 | 0.00 | 0.00 | 84 | 1017.2 |
| 20260905143633 | 82 | 175 | 3.0 | 7.0 | 0.00 | 0.00 | 0.00 | 85 | 1017.2 |
| 20260905143139 | 82 | 249 | 3.0 | 7.0 | 0.00 | 0.00 | 0.00 | 85 | 1017.1 |
| 20260905142637 | 82 | 195 | 2.0 | 5.0 | 0.00 | 0.00 | 0.00 | 87 | 1017.2 |
| 20260905142136 | 82 | 151 | 3.0 | 9.0 | 0.00 | 0.00 | 0.00 | 89 | 1017.1 |
| 20260905141632 | 81 | 179 | 3.0 | 9.0 | 0.00 | 0.00 | 0.00 | 89 | 1017.1 |
| 20260905141124 | 81 | 200 | 2.0 | 5.0 | 0.00 | 0.00 | 0.00 | 89 | 1017.1 |
| 20260905140621 | 81 | 155 | 2.0 | 7.0 | 0.00 | 0.00 | 0.00 | 90 | 1017.0 |
| 20260905140345 | 80 | 148 | 2.0 | 7.0 | 0.00 | 0.00 | 0.00 | 91 | 1017.0 |
| 20260905135617 | 80 | 176 | 3.0 | 5.0 | 0.00 | 0.00 | 0.00 | 92 | 1017.0 |
| 20260905135115 | 80 | 169 | 3.0 | 7.0 | 0.00 | 0.00 | 0.00 | 92 | 1016.9 |
| 20260905134615 | 80 | 161 | 2.0 | 7.0 | 0.00 | 0.00 | 0.00 | 93 | 1016.9 |
| 20260905134337 | 79 | 153 | 2.0 | 5.0 | 0.00 | 0.00 | 0.00 | 94 | 1016.8 |
| 20260905133613 | 79 | 184 | 1.0 | 5.0 | 0.00 | 0.00 | 0.00 | 95 | 1016.8 |
| 20260905133111 | 79 | 159 | 1.0 | 5.0 | 0.00 | 0.01 | 0.00 | 95 | 1016.8 |
| 20260905132611 | 78 | 160 | 1.0 | 5.0 | 0.00 | 0.01 | 0.00 | 96 | 1016.7 |
| 20260905132110 | 77 | 185 | 0.0 | 3.0 | 0.00 | 0.01 | 0.00 | 97 | 1016.7 |
| 20260905131611 | 77 | 192 | 0.0 | 0.0 | 0.00 | 0.01 | 0.00 | 97 | 1016.5 |
| 20260905131335 | 76 | 192 | 0.0 | 0.0 | 0.00 | 0.01 | 0.00 | 98 | 1016.5 |
| 20260905130609 | 76 | 192 | 0.0 | 0.0 | 0.00 | 0.01 | 0.00 | 97 | 1016.3 |
| 20260905130107 | 75 | 192 | 0.0 | 0.0 | 0.00 | 0.01 | 0.00 | 98 | 1016.2 |
| 20260905125603 | 75 | 192 | 0.0 | 0.0 | 0.00 | 0.01 | 0.00 | 97 | 1016.2 |
| 20260905125555 | 75 | 192 | 0.0 | 0.0 | 0.00 | 0.01 | 0.00 | 97 | 1016.2 |
| 20260905124603 | 75 | 192 | 0.0 | 0.0 | 0.00 | 0.01 | 0.00 | 98 | 1016.1 |
| 20260905124326 | 74 | 192 | 0.0 | 0.0 | 0.00 | 0.01 | 0.00 | 97 | 1016.1 |
| 20260905123602 | 74 | 192 | 0.0 | 0.0 | 0.00 | 0.01 | 0.00 | 97 | 1016.2 |
| 20260905123058 | 74 | 192 | 0.0 | 0.0 | 0.00 | 0.01 | 0.00 | 97 | 1016.1 |
| 20260905122552 | 74 | 192 | 0.0 | 0.0 | 0.00 | 0.01 | 0.00 | 97 | 1016.0 |
| 20260905122046 | 74 | 192 | 0.0 | 0.0 | 0.00 | 0.01 | 0.00 | 97 | 1016.0 |
| 20260905121540 | 74 | 192 | 0.0 | 0.0 | 0.00 | 0.01 | 0.00 | 97 | 1015.9 |
| 20260905121036 | 74 | 192 | 0.0 | 0.0 | 0.00 | 0.01 | 0.00 | 97 | 1015.8 |
| 20260905120534 | 74 | 192 | 0.0 | 0.0 | 0.00 | 0.01 | 0.00 | 97 | 1015.8 |
| 20260905120031 | 74 | 192 | 0.0 | 0.0 | 0.00 | 0.01 | 0.00 | 96 | 1015.6 |
| 20260905115530 | 74 | 192 | 0.0 | 0.0 | 0.00 | 0.01 | 0.00 | 95 | 1015.7 |
| 20260905115030 | 74 | 192 | 0.0 | 0.0 | 0.00 | 0.01 | 0.00 | 95 | 1015.7 |
| 20260905114752 | 74 | 192 | 0.0 | 0.0 | 0.00 | 0.01 | 0.00 | 96 | 1015.7 |
| 20260905114031 | 74 | 192 | 0.0 | 0.0 | 0.00 | 0.01 | 0.00 | 96 | 1015.6 |
| 20260905113530 | 74 | 192 | 0.0 | 0.0 | 0.00 | 0.01 | 0.00 | 96 | 1015.6 |
| 20260905113030 | 74 | 192 | 0.0 | 0.0 | 0.00 | 0.01 | 0.00 | 95 | 1015.7 |
| 20260905112530 | 74 | 192 | 0.0 | 0.0 | 0.00 | 0.01 | 0.00 | 95 | 1015.5 |
| 20260905112254 | 74 | 192 | 0.0 | 1.0 | 0.00 | 0.01 | 0.00 | 95 | 1015.5 |
| 20260905111530 | 74 | 192 | 0.0 | 1.0 | 0.00 | 0.01 | 0.00 | 95 | 1015.4 |
| 20260905111030 | 74 | 192 | 0.0 | 1.0 | 0.00 | 0.01 | 0.00 | 95 | 1015.4 |
| 20260905110530 | 74 | 192 | 0.0 | 2.0 | 0.00 | 0.01 | 0.00 | 94 | 1015.3 |
| 20260905110030 | 74 | 192 | 0.0 | 2.0 | 0.00 | 0.01 | 0.00 | 94 | 1015.3 |
| 20260905105530 | 74 | 192 | 0.0 | 2.0 | 0.00 | 0.01 | 0.00 | 94 | 1015.3 |
| 20260905105030 | 75 | 192 | 0.0 | 0.0 | 0.00 | 0.01 | 0.00 | 94 | 1015.3 |
| 20260905104530 | 75 | 192 | 0.0 | 0.0 | 0.00 | 0.01 | 0.00 | 94 | 1015.4 |
| 20260905104030 | 75 | 192 | 0.0 | 0.0 | 0.00 | 0.01 | 0.00 | 93 | 1015.4 |
| 20260905103755 | 75 | 192 | 0.0 | 0.0 | 0.00 | 0.01 | 0.00 | 93 | 1015.3 |
| 20260905103030 | 76 | 192 | 0.0 | 1.0 | 0.00 | 0.01 | 0.00 | 93 | 1015.3 |
| 20260905102754 | 76 | 192 | 0.0 | 1.0 | 0.00 | 0.01 | 0.00 | 93 | 1015.4 |
| 20260905102030 | 76 | 192 | 0.0 | 0.0 | 0.00 | 0.01 | 0.00 | 93 | 1015.3 |
| 20260905101531 | 76 | 192 | 0.0 | 0.0 | 0.00 | 0.01 | 0.00 | 92 | 1015.4 |
| 20260905101030 | 76 | 192 | 0.0 | 1.0 | 0.00 | 0.01 | 0.00 | 92 | 1015.4 |
| 20260905100530 | 76 | 192 | 0.0 | 2.0 | 0.00 | 0.01 | 0.00 | 93 | 1015.5 |
| 20260905100031 | 77 | 192 | 1.0 | 3.0 | 0.00 | 0.01 | 0.00 | 93 | 1015.5 |
| 20260905095530 | 77 | 192 | 0.0 | 3.0 | 0.00 | 0.01 | 0.00 | 93 | 1015.4 |
| 20260905095030 | 77 | 192 | 0.0 | 2.0 | 0.00 | 0.01 | 0.00 | 92 | 1015.4 |
| 20260905094531 | 77 | 192 | 1.0 | 4.0 | 0.00 | 0.01 | 0.00 | 92 | 1015.4 |
| 20260905094031 | 77 | 192 | 1.0 | 4.0 | 0.00 | 0.01 | 0.00 | 92 | 1015.2 |
| 20260905093530 | 77 | 194 | 1.0 | 4.0 | 0.00 | 0.01 | 0.00 | 92 | 1015.2 |
| 20260905093030 | 77 | 194 | 1.0 | 4.0 | 0.00 | 0.01 | 0.00 | 92 | 1015.2 |
| 20260905092530 | 77 | 194 | 1.0 | 5.0 | 0.00 | 0.01 | 0.00 | 92 | 1015.2 |
| 20260905092030 | 78 | 193 | 2.0 | 5.0 | 0.00 | 0.01 | 0.00 | 91 | 1015.3 |
| 20260905091524 | 78 | 215 | 2.0 | 5.0 | 0.00 | 0.01 | 0.00 | 91 | 1015.3 |
| 20260905091246 | 78 | 0 | 2.0 | 6.0 | 0.00 | 0.01 | 0.00 | 91 | 1015.4 |
| 20260905090516 | 78 | 180 | 2.0 | 6.0 | 0.00 | 0.01 | 0.00 | 91 | 1015.4 |
| 20260905090235 | 78 | 184 | 2.0 | 5.0 | 0.00 | 0.01 | 0.00 | 91 | 1015.3 |
| 20260905085516 | 78 | 192 | 2.0 | 7.0 | 0.00 | 0.01 | 0.00 | 91 | 1015.4 |
| 20260905085016 | 78 | 174 | 3.0 | 7.0 | 0.00 | 0.01 | 0.00 | 91 | 1015.4 |
| 20260905084516 | 78 | 179 | 3.0 | 7.0 | 0.00 | 0.01 | 0.00 | 90 | 1015.5 |
| 20260905084016 | 78 | 192 | 4.0 | 9.0 | 0.00 | 0.01 | 0.00 | 91 | 1015.4 |
| 20260905083517 | 78 | 187 | 3.0 | 9.0 | 0.00 | 0.01 | 0.00 | 90 | 1015.4 |
| 20260905083016 | 78 | 190 | 3.0 | 7.0 | 0.00 | 0.01 | 0.00 | 90 | 1015.3 |
| 20260905082952 | 78 | 188 | 3.0 | 7.0 | 0.00 | 0.01 | 0.00 | 90 | 1015.3 |
| 20260905082016 | 78 | 195 | 3.0 | 7.0 | 0.00 | 0.01 | 0.00 | 90 | 1015.4 |
| 20260905081516 | 78 | 180 | 2.0 | 6.0 | 0.00 | 0.01 | 0.00 | 90 | 1015.5 |
| 20260905081019 | 78 | 183 | 2.0 | 6.0 | 0.00 | 0.01 | 0.00 | 90 | 1015.5 |
| 20260905080516 | 78 | 197 | 3.0 | 6.0 | 0.00 | 0.01 | 0.00 | 89 | 1015.5 |
| 20260905080016 | 78 | 191 | 3.0 | 6.0 | 0.00 | 0.01 | 0.00 | 89 | 1015.4 |
| 20260905075516 | 79 | 185 | 2.0 | 6.0 | 0.00 | 0.01 | 0.00 | 89 | 1015.5 |
| 20260905075016 | 79 | 184 | 3.0 | 7.0 | 0.00 | 0.01 | 0.00 | 89 | 1015.6 |
| 20260905074514 | 79 | 171 | 4.0 | 7.0 | 0.00 | 0.01 | 0.00 | 88 | 1015.6 |
| 20260905074238 | 79 | 194 | 3.0 | 7.0 | 0.00 | 0.01 | 0.00 | 88 | 1015.7 |
| 20260905073512 | 79 | 207 | 3.0 | 7.0 | 0.00 | 0.01 | 0.00 | 88 | 1015.7 |
| 20260905073012 | 79 | 161 | 3.0 | 7.0 | 0.00 | 0.01 | 0.00 | 88 | 1015.7 |
| 20260905072512 | 79 | 161 | 3.0 | 7.0 | 0.00 | 0.01 | 0.00 | 87 | 1015.6 |
| 20260905072012 | 79 | 178 | 3.0 | 8.0 | 0.00 | 0.01 | 0.00 | 87 | 1015.6 |
| 20260905071512 | 79 | 161 | 4.0 | 10.0 | 0.00 | 0.01 | 0.00 | 87 | 1015.7 |
| 20260905071012 | 79 | 188 | 4.0 | 10.0 | 0.00 | 0.01 | 0.00 | 87 | 1015.8 |
| 20260905070512 | 80 | 188 | 4.0 | 10.0 | 0.00 | 0.01 | 0.00 | 86 | 1015.7 |
| 20260905070013 | 80 | 155 | 4.0 | 10.0 | 0.00 | 0.01 | 0.00 | 86 | 1015.9 |
| 20260905065512 | 80 | 159 | 3.0 | 8.0 | 0.00 | 0.01 | 0.00 | 86 | 1015.9 |
| 20260905065012 | 80 | 170 | 3.0 | 11.0 | 0.00 | 0.01 | 0.00 | 86 | 1015.9 |
| 20260905064512 | 80 | 160 | 3.0 | 11.0 | 0.00 | 0.01 | 0.00 | 85 | 1015.9 |
| 20260905064012 | 80 | 132 | 3.0 | 7.0 | 0.00 | 0.01 | 0.00 | 85 | 1016.1 |
| 20260905063512 | 80 | 166 | 3.0 | 7.0 | 0.00 | 0.01 | 0.00 | 85 | 1016.0 |
| 20260905063012 | 80 | 0 | 4.0 | 8.0 | 0.00 | 0.01 | 0.00 | 84 | 1015.9 |
| 20260905062512 | 80 | 0 | 3.0 | 9.0 | 0.00 | 0.01 | 0.00 | 84 | 1016.0 |
| 20260905062012 | 80 | 168 | 3.0 | 9.0 | 0.00 | 0.01 | 0.00 | 84 | 1015.9 |
| 20260905061512 | 80 | 173 | 4.0 | 10.0 | 0.00 | 0.01 | 0.00 | 83 | 1015.9 |
| 20260905061012 | 80 | 158 | 4.0 | 10.0 | 0.00 | 0.01 | 0.00 | 83 | 1016.0 |
| 20260905060512 | 80 | 166 | 4.0 | 10.0 | 0.00 | 0.01 | 0.00 | 83 | 1016.0 |
| 20260905060012 | 80 | 167 | 5.0 | 8.0 | 0.00 | 0.01 | 0.00 | 82 | 1016.0 |
| 20260905055510 | 80 | 175 | 5.0 | 9.0 | 0.00 | 0.01 | 0.00 | 82 | 1016.0 |
| 20260905055236 | 80 | 116 | 5.0 | 11.0 | 0.00 | 0.01 | 0.00 | 82 | 1016.0 |
| 20260905054510 | 80 | 131 | 4.0 | 11.0 | 0.00 | 0.01 | 0.00 | 82 | 1016.0 |
| 20260905054009 | 80 | 135 | 3.0 | 8.0 | 0.00 | 0.01 | 0.00 | 82 | 1016.1 |
| 20260905053510 | 80 | 0 | 3.0 | 8.0 | 0.00 | 0.01 | 0.00 | 81 | 1016.0 |
| 20260905053007 | 80 | 143 | 2.0 | 6.0 | 0.00 | 0.01 | 0.00 | 81 | 1016.0 |
| 20260905052503 | 80 | 157 | 2.0 | 6.0 | 0.00 | 0.01 | 0.00 | 80 | 1016.1 |
| 20260905052002 | 81 | 154 | 2.0 | 6.0 | 0.00 | 0.01 | 0.00 | 80 | 1016.2 |
| 20260905051501 | 81 | 167 | 2.0 | 6.0 | 0.00 | 0.01 | 0.00 | 80 | 1016.2 |
| 20260905050956 | 81 | 156 | 3.0 | 9.0 | 0.00 | 0.01 | 0.00 | 80 | 1016.2 |
| 20260905050449 | 81 | 144 | 4.0 | 9.0 | 0.00 | 0.01 | 0.00 | 79 | 1016.2 |
| 20260905050210 | 81 | 157 | 4.0 | 8.0 | 0.00 | 0.01 | 0.01 | 79 | 1016.2 |
| 20260905045438 | 81 | 138 | 4.0 | 8.0 | 0.00 | 0.01 | 0.01 | 79 | 1016.1 |
| 20260905044931 | 81 | 121 | 4.0 | 9.0 | 0.00 | 0.01 | 0.01 | 79 | 1016.2 |
| 20260905044426 | 82 | 141 | 4.0 | 9.0 | 0.00 | 0.01 | 0.01 | 79 | 1016.1 |
| 20260905044129 | 82 | 165 | 5.0 | 10.0 | 0.00 | 0.01 | 0.01 | 78 | 1016.3 |
| 20260905044120 | 82 | 118 | 4.0 | 9.0 | 0.00 | 0.01 | 0.01 | 78 | 1016.2 |
| 20260905042910 | 82 | 132 | 5.0 | 10.0 | 0.00 | 0.01 | 0.01 | 78 | 1016.3 |
| 20260905042410 | 82 | 136 | 5.0 | 10.0 | 0.00 | 0.01 | 0.01 | 78 | 1016.1 |
| 20260905041910 | 82 | 178 | 5.0 | 11.0 | 0.00 | 0.01 | 0.01 | 77 | 1016.1 |
| 20260905041408 | 82 | 140 | 6.0 | 11.0 | 0.00 | 0.01 | 0.01 | 77 | 1016.0 |
| 20260905040908 | 82 | 134 | 5.0 | 10.0 | 0.00 | 0.01 | 0.01 | 77 | 1016.0 |
| 20260905040409 | 82 | 136 | 4.0 | 10.0 | 0.00 | 0.01 | 0.01 | 77 | 1016.0 |
| 20260905035908 | 82 | 123 | 3.0 | 7.0 | 0.00 | 0.01 | 0.01 | 77 | 1015.9 |
| 20260905035409 | 82 | 133 | 3.0 | 8.0 | 0.00 | 0.01 | 0.01 | 77 | 1015.9 |
| 20260905035136 | 82 | 157 | 4.0 | 8.0 | 0.00 | 0.01 | 0.01 | 77 | 1015.9 |
| 20260905034407 | 82 | 147 | 3.0 | 8.0 | 0.00 | 0.01 | 0.01 | 77 | 1015.9 |
| 20260905033906 | 82 | 166 | 3.0 | 8.0 | 0.00 | 0.01 | 0.01 | 77 | 1015.9 |
| 20260905033628 | 82 | 142 | 4.0 | 7.0 | 0.00 | 0.01 | 0.01 | 77 | 1015.9 |
| 20260905032906 | 83 | 139 | 4.0 | 8.0 | 0.00 | 0.01 | 0.01 | 76 | 1015.9 |
| 20260905032405 | 83 | 142 | 4.0 | 11.0 | 0.00 | 0.01 | 0.01 | 76 | 1015.9 |
| 20260905031903 | 83 | 142 | 4.0 | 11.0 | 0.00 | 0.01 | 0.01 | 76 | 1015.9 |
| 20260905031403 | 83 | 128 | 5.0 | 11.0 | 0.00 | 0.01 | 0.01 | 76 | 1015.9 |
| 20260905030902 | 83 | 115 | 5.0 | 11.0 | 0.00 | 0.01 | 0.01 | 76 | 1015.8 |
| 20260905030402 | 83 | 157 | 5.0 | 10.0 | 0.00 | 0.01 | 0.01 | 76 | 1015.7 |
| 20260905025902 | 83 | 146 | 5.0 | 11.0 | 0.00 | 0.01 | 0.01 | 76 | 1015.6 |
| 20260905025356 | 83 | 129 | 5.0 | 11.0 | 0.00 | 0.01 | 0.01 | 76 | 1015.5 |
| 20260905024852 | 83 | 147 | 6.0 | 11.0 | 0.00 | 0.01 | 0.01 | 75 | 1015.5 |
| 20260905024353 | 84 | 138 | 6.0 | 11.0 | 0.00 | 0.01 | 0.01 | 75 | 1015.5 |
| 20260905023852 | 84 | 142 | 5.0 | 9.0 | 0.00 | 0.01 | 0.01 | 74 | 1015.4 |
| 20260905023352 | 84 | 144 | 5.0 | 10.0 | 0.00 | 0.01 | 0.01 | 74 | 1015.3 |
| 20260905023116 | 84 | 144 | 6.0 | 10.0 | 0.00 | 0.01 | 0.01 | 74 | 1015.3 |
| 20260905022352 | 84 | 175 | 6.0 | 12.0 | 0.00 | 0.01 | 0.01 | 74 | 1015.2 |
| 20260905022118 | 84 | 128 | 6.0 | 12.0 | 0.00 | 0.01 | 0.01 | 74 | 1015.2 |
| 20260905021613 | 84 | 0 | 6.0 | 10.0 | 0.00 | 0.01 | 0.01 | 73 | 1015.2 |
| 20260905020853 | 84 | 153 | 5.0 | 10.0 | 0.00 | 0.01 | 0.01 | 73 | 1015.2 |
| 20260905020351 | 84 | 183 | 5.0 | 10.0 | 0.00 | 0.01 | 0.01 | 73 | 1015.2 |
| 20260905015850 | 84 | 134 | 5.0 | 10.0 | 0.00 | 0.01 | 0.01 | 73 | 1015.1 |
| 20260905015350 | 84 | 149 | 4.0 | 8.0 | 0.00 | 0.01 | 0.01 | 73 | 1015.0 |
| 20260905014850 | 84 | 134 | 4.0 | 8.0 | 0.00 | 0.01 | 0.01 | 73 | 1015.0 |
| 20260905014351 | 85 | 138 | 4.0 | 9.0 | 0.00 | 0.01 | 0.01 | 73 | 1014.9 |
| 20260905013850 | 85 | 152 | 4.0 | 9.0 | 0.00 | 0.01 | 0.01 | 73 | 1014.9 |
| 20260905013844 | 85 | 138 | 4.0 | 9.0 | 0.00 | 0.01 | 0.01 | 73 | 1014.8 |
| 20260905012845 | 85 | 171 | 5.0 | 9.0 | 0.00 | 0.01 | 0.01 | 73 | 1014.8 |
| 20260905012826 | 85 | 118 | 5.0 | 10.0 | 0.00 | 0.01 | 0.01 | 73 | 1014.7 |
| 20260905012102 | 85 | 140 | 5.0 | 13.0 | 0.00 | 0.01 | 0.01 | 73 | 1014.7 |
| 20260905011605 | 85 | 137 | 5.0 | 13.0 | 0.00 | 0.01 | 0.01 | 73 | 1014.6 |
| 20260905011102 | 85 | 129 | 5.0 | 13.0 | 0.00 | 0.01 | 0.01 | 73 | 1014.6 |
| 20260905010336 | 85 | 127 | 5.0 | 13.0 | 0.00 | 0.01 | 0.01 | 72 | 1014.6 |
| 20260905005837 | 86 | 126 | 7.0 | 13.0 | 0.00 | 0.01 | 0.01 | 72 | 1014.6 |
| 20260905005558 | 86 | 122 | 7.0 | 13.0 | 0.00 | 0.01 | 0.01 | 71 | 1014.5 |